Weather in Klyuchi

Russia / Orenburg Oblast     52°56′54″N   52°44′12″E
temp.,
°C
wind,
m/s
gust,
m/s
humid.,
%
clouds,
%
prec.,
mm/h
press.,
hPa
HPBL,
m
5 august, thu
thu523:00+28wnw4930100 0.0 1009197
02:00+24nnw7135882 0.0 1010371
05:00+20nnw4877100 0.1 1011203
08:00+22nw4573100 0.3 1011299
11:00+26nw665185 0.3 1011888
14:00+29nnw663566 0.0 10111853
17:00+30nnw65270 0.0 10112839
20:00+28nnw79266 0.0 10111439
6 august, fri
fri623:00+20n344699 0.0 101348
02:00+17nnw235970 0.0 101332
05:00+16nnw34700 0.0 101449
08:00+19n46530 0.0 1015280
11:00+25n55350 0.0 10151912
14:00+28n562490 0.0 10142483
17:00+29n66201 0.0 10142615
20:00+27n46225 0.0 1014338
7 august, sat
sat723:00+19n453418 0.0 101564
02:00+17ne364063 0.0 101682
05:00+15ene33454 0.0 101737
08:00+18e34395 0.0 1018182
11:00+25ne232712 0.0 10171237
14:00+29nne44235 0.0 10161885
17:00+30n45230 0.0 10152263
20:00+27nne67300 0.0 1016811
8 august, sun
sun823:00+20ne48476 0.0 1018143
02:00+17ne345640 0.0 101850
05:00+16ene2258100 0.0 101919
08:00+19ene344486 0.0 1019209
11:00+26ene34315 0.0 1019937
14:00+30ne452787 0.0 10181701
17:00+32nne562415 0.0 10172119
20:00+29ne5728100 0.0 1017633
9 august, mon
mon923:00+23ne4943100 0.0 1019131
02:00+20e3643100 0.0 101997
05:00+18ese2243100 0.0 102011
08:00+21e3435100 0.0 1020157
11:00+25e3429100 0.0 1019720
14:00+29ene4428100 0.0 10191135
17:00+31ene5523100 0.0 10171707
20:00+28ene462339 0.0 1017259